STARLINK-1113

decayed
NORAD ID: 44926 Int'l Des: 2020-001 Owner: SPXS Country: US Constellation: starlink
LEOCIRCULAR
グループ

STARLINK-1113について

説明を読み込み中...

高度履歴

Altitude vs Time

uPlot chart will show altitude changes over time

軌道要素

1 44926U 20001N 24264.92304358 .30805268 12231-4 30255-2 0 9992
2 44926 53.0318 151.3227 0005948 232.4535 235.8537 16.37428369260996
Epoch: Sep 20, 2024 • Age: 8636 hours

現在のステータス

Position data unavailable
打ち上げ日 Jan 7, 2020
運用期間 5.6 years
落下予定日 Sep 21, 2024
タイプ internet

技術仕様

分類 Payload
質量 260.00 kg
乾燥質量 248.00 kg
総質量 260.00 kg
長さ 0.20 m
直径 2.80 m
スパン 9.00 m
形状 Box + pan
製造者 SPXS
バスタイプ Starlink
フェーズステータス Unknown Transfer Status
所有者/国 SPXS/US

大規模コンステレーション

Loading constellations...